STARLINK-35440, 66345

Orbit data source: Space-Track

STARLINK-35440, 66345 is a payload satellite owned by SpaceX/Seattle (US) in LEO that was launched on Thu, 06 Nov 2025 UTC via an FALCON 9 launch vehicle from the Air Force Eastern Test Range (AFETR). Payload-class satellites include a variety of spacecraft equipped with specific instruments for various scientific and technological missions. These include communications satellites like Starlink; space stations such as the ISS; scientific satellites like the Hubble; Earth observation satellites from companies like Planet Labs, Umbra, and HawkEye 360; GPS; miniature CubeSats for education and research; and military/defense satellites.

Loading next visibility...
Identifier
66345, 2025-253AC
Orbit
LEO
Country
Flag of USUS
Related business
Manufacturer
SpaceX/Seattle
Mission
Operational Commercial Communications
Bus & Motor
STARLINK V2MO, Unknown motor
Mass
575 kg wet, ~530 kg dry
Launch date (UTC)
2025-11-06 (7 months ago)
Launch vehicle
FALCON 9
Launch site
Air Force Eastern Test Range (AFETR)
Object type
Payload
Rocket body
Debris
Shape & HBR
Box + 2 Pan, 17.7 m
Radar Cross Section
36.964 m², Large (>1 m²)

Expand to show TLE details & history
Last TLE update: 14 hours ago

TLE from 14 hours ago
0 STARLINK-35440
1 66345U 25253AC  26170.56416631  .00017512  00000-0  64425-3 0  9999
2 66345  43.0031 357.2767 0001526 267.0562  93.0115 15.27586993 35828
Epoch: 2026-06-19T13:32Z
TLE epoch observation values (Epoch: 2026-06-19T13:32:23.969Z)
Latitude
-0.00001°
Longitude
-113.61451°
Altitude
482.859 km
Speed
7.626 km/s
True Right ascension
23h 49m 06s
True Declination
0° 00' 00"
Sunlit
Object was in daylight at epoch
Visualization orbit readout
Latitude
Unknown
Longitude
Unknown
Altitude
Unknown
Speed
Unknown
Apparent Right ascension
Unknown
Apparent Declination
Unknown
Sunlit
N/A
Visualization observer readout
Local Sidereal Time
14:31:31
Azimuth
Unknown
Elevation
Unknown
Doppler factor
Unknown
Orbital elements
Apogee altitude
486.02 km
Perigee altitude
483.926 km
Semi-major axis
6,863.11 km
Eccentricity
0.00015
Inclination
43.0031°
RAAN
357.2767°
Arg. of periapsis
267.0562°
True anomaly
93.02896°
Mean anomaly
93.0115°
Eccentric anomaly
93.02023°
Mean motion
3.81735 °/min
Orbital period
94.31 mins
BSTAR
0.00064425
Loading maneuver chart data...
Computing Atmospheric mass density...
Loading historical data...
Loading historical data...
Loading historical data...
Loading historical data...
Loading historical data...
Loading historical data...
Loading historical data...

Documentation

Showing up to 5 results
|